TimeMST,TemperatureF,Dew PointF,Humidity,Sea Level PressureIn,VisibilityMPH,Wind Direction,Wind SpeedMPH,Gust SpeedMPH,PrecipitationIn,Events,Conditions,WindDirDegrees,DateUTC
12:53 AM,25.0,21.0,85,30.25,10.0,NE,4.6,-,N/A,,Scattered Clouds,50,2013-02-28 07:53:00
1:53 AM,25.0,21.0,85,30.25,10.0,NNE,5.8,-,N/A,,Overcast,20,2013-02-28 08:53:00
2:53 AM,26.1,21.0,81,30.23,10.0,East,3.5,-,N/A,,Overcast,80,2013-02-28 09:53:00
3:53 AM,24.1,19.0,81,30.24,10.0,Calm,Calm,-,N/A,,Clear,0,2013-02-28 10:53:00
4:53 AM,21.9,18.0,85,30.25,10.0,Calm,Calm,-,N/A,,Clear,0,2013-02-28 11:53:00
5:53 AM,21.9,18.0,85,30.26,10.0,Calm,Calm,-,N/A,,Clear,0,2013-02-28 12:53:00
6:53 AM,21.0,18.0,88,30.27,10.0,SSW,5.8,-,N/A,,Clear,200,2013-02-28 13:53:00
7:53 AM,26.1,21.9,84,30.26,10.0,South,3.5,-,N/A,,Clear,190,2013-02-28 14:53:00
8:53 AM,30.9,24.1,76,30.25,10.0,SW,6.9,-,N/A,,Clear,230,2013-02-28 15:53:00
9:53 AM,37.0,23.0,57,30.25,10.0,West,8.1,-,N/A,,Clear,270,2013-02-28 16:53:00
10:53 AM,42.1,21.0,43,30.23,10.0,West,11.5,-,N/A,,Clear,280,2013-02-28 17:53:00
11:53 AM,45.0,19.0,36,30.23,10.0,West,12.7,-,N/A,,Clear,270,2013-02-28 18:53:00
12:53 PM,46.0,17.1,31,30.20,10.0,WNW,19.6,25.3,N/A,,Partly Cloudy,290,2013-02-28 19:53:00
1:53 PM,43.0,19.9,40,30.21,10.0,WNW,18.4,-,N/A,,Overcast,290,2013-02-28 20:53:00
2:53 PM,45.0,19.9,37,30.21,10.0,WNW,11.5,-,N/A,,Overcast,290,2013-02-28 21:53:00
3:53 PM,44.1,21.0,40,30.22,10.0,NNW,12.7,-,N/A,,Overcast,330,2013-02-28 22:53:00
4:53 PM,41.0,21.9,47,30.24,10.0,NNW,8.1,-,N/A,,Mostly Cloudy,330,2013-02-28 23:53:00
5:53 PM,37.9,25.0,60,30.27,10.0,North,17.3,24.2,N/A,,Overcast,360,2013-03-01 00:53:00
6:53 PM,33.1,28.0,82,30.28,10.0,Calm,Calm,-,N/A,,Mostly Cloudy,0,2013-03-01 01:53:00
7:53 PM,30.0,25.0,82,30.29,10.0,WSW,8.1,-,N/A,,Clear,240,2013-03-01 02:53:00
8:53 PM,28.9,23.0,78,30.29,10.0,NW,8.1,-,N/A,,Clear,320,2013-03-01 03:53:00
9:53 PM,27.0,21.0,78,30.32,10.0,WNW,6.9,-,N/A,,Clear,290,2013-03-01 04:53:00
10:53 PM,26.1,19.9,78,30.32,10.0,WNW,8.1,-,N/A,,Clear,290,2013-03-01 05:53:00
11:53 PM,27.0,19.9,75,30.30,10.0,WNW,8.1,-,N/A,,Mostly Cloudy,290,2013-03-01 06:53:00